Погода в Юрасовом Хуторе

Россия / Брянская область     52°08′21″N   34°31′18″E
темп.,
°C
ветер,
м/с
пор.,
м/с
влажн.,
%
обл.,
%
осадки,
мм/ч
давл.,
гПа
погр.,
м
18 мая, вт
вт1800:00+17юв51195100 0.1 1004278
03:00+16ююв499878 1.8 1004272
06:00+16ююв4897100 0.1 1005255
09:00+20юв468141 1.9 1004462
12:00+18ю478463 3.6 1005476
15:00+20ююв577698 4.9 1003979
18:00+15ююв31093100 1.7 1003443
21:00+15юв41092100 1.8 1003295
19 мая, ср
ср1900:00+13ююв41196100 0.0 1003288
03:00+12юв389790 0.0 1004192
06:00+12юв3797100 0.0 1004222
09:00+16ююв578479 0.1 1005711
12:00+18юв457394 0.5 10051071
15:00+17ю3480100 2.5 1005595
18:00+16ююв3485100 0.7 1005443
21:00+13вюв2596100 2.7 1005185
20 мая, чт
чт2000:00+13ююв2693100 0.6 1004171
03:00+12юв3695100 0.8 1004190
06:00+11ю3897100 0.4 1004275
09:00+12ююв4795100 1.5 1004331
12:00+13ю4791100 1.8 1004406
15:00+15юз688689 5.1 1005824
18:00+13зюз6993100 0.8 1007621
21:00+9зюз5993100 0.9 1009709
21 мая, пт
пт2100:00+8зюз61092100 0.1 1010882
03:00+8юз51093100 0.2 1011568
06:00+8зюз7129396 0.1 1012651
09:00+12з697942 0.1 1014906
12:00+16зсз566093 0.0 10151297
15:00+18зсз235197 0.0 10151345
18:00+17зсз1266100 0.0 101647
21:00+12ссз4783100 0.1 1018184
22 мая, сб
сб2200:00+11с4881100 0.0 1018207
03:00+11св3970100 0.1 1018217
06:00+11всв41077100 0.0 1017314
09:00+12ссв4988100 0.0 1018416
12:00+13св61084100 0.0 1017545
15:00+15св6886100 0.3 1016759
18:00+15ссв4688100 0.1 1016492
21:00+12св489462 0.1 1016272